Regional Weather Roundup
Issued by NWS Newport/Morehead, NC

Current Version | Previous Version | Graphics & Text | Print | Product List | Glossary Off
Versions: 1 2 3 4 5 6 7 8 9 10 11 12 13 14 15 16 17 18 19 20 21 22 23 24 25 26 27 28 29 30 31 32 33 34 35 36 37 38 39 40 41 42 43 44 45 46 47 48 49 50

000
ASUS42 KMHX 092325
RWRMHX
WEATHER ROUNDUP FOR EASTERN NORTH CAROLINA
NATIONAL WEATHER SERVICE NEWPORT/MOREHEAD CITY NC
600 PM EST TUE FEB 09 2016

NOTE: "FAIR" INDICATES FEW OR NO CLOUDS BELOW 12,000 FEET
WITH NO SIGNIFICANT WEATHER AND/OR OBSTRUCTIONS TO VISIBILITY

NCZ015>017-031-032-045>047-102-103-100000-
NORTH COAST

CITY           SKY/WX    TMP DP  RH WIND       PRES   REMARKS
EDENTON        CLOUDY    40  34  79 NW12G23   29.69R
ELIZABETH CITY CLOUDY    41  33  73 SW13      29.66R
KITTY HAWK     LGT RAIN  42  32  69 W14G25    29.65R
MANTEO         CLOUDY    41  36  82 W9        29.67R

$$

NCZ045>047-081-094-103-104-100000-
CENTRAL COAST

CITY           SKY/WX    TMP DP  RH WIND       PRES   REMARKS
FRISCO         CLEAR     45  31  58 W14G23    29.67R
SWANQUARTER      N/A     45 N/A N/A SE3G22    29.68R

$$

NCZ095-097-098-100-101-100000-
SOUTHERN COAST

CITY           SKY/WX    TMP DP  RH WIND       PRES   REMARKS
BEAUFORT       MOCLDY    44  27  51 W15       29.72R
CEDAR ISLAND     N/A     43 N/A N/A SW9G22    29.77R
JACKSONVILLE   CLOUDY    43  25  49 W12G21    29.74R
PINEY ISLAND   MOCLDY   N/A N/A N/A W14       29.70R
WILMINGTON     CLOUDY    43  25  49 W21G31    29.77R


$$

NCZ011>013-027>030-043-044-078>080-089-090>093-098-100000-
COASTAL PLAIN

CITY           SKY/WX    TMP DP  RH WIND       PRES   REMARKS
AHOSKIE        CLOUDY    40  26  56 CALM      29.69R
CLINTON        MOCLDY    41  26  54 W9        29.75R
ELIZABETHTOWN  CLOUDY    41  25  53 W10G17    29.78R
GOLDSBORO      CLOUDY    41  21  45 W15G25    29.71R
GREENVILLE     CLOUDY    43  23  45 W9G17     29.74R
HAVELOCK       CLOUDY    44  25  47 W15       29.72R
KENANSVILLE    CLOUDY    41  23  49 SW10      29.76R
KINSTON        PTCLDY    43  21  42 W8G17     29.72R
NEW BERN       CLOUDY    43  24  47 W15G23    29.72R
RICHLANDS      CLOUDY    43  23  45 SW14G22   29.75R
ROCKY MOUNT    CLOUDY    40  24  53 W10G24    29.71R
WASHINGTON     CLOUDY    42  26  52 W9G18     29.70R
WHITEVILLE     MOCLDY    41  23  50 W8        29.79R

$$

AMZ130-135-150-152-154-156-158-170-250-252-270-ANZ085-086-088-633-658-670-100000-
MARINE OBSERVATIONS

STATION/POSITION TIME  TEMP    WIND        PRES    WAVE   SWELL
                       AIR SEA DIR/SP/G            HT/PER HT/PER
                 (UTC) (F)     (DEG/KT/KT) (MB)    (FT/S) (FT/S)
CHESAPEAKE LIGHT 2300   44     290/ 15/ 16 1003.7
64 E VA BEACH    2250   47 50  270/ 21/ 29 1002.2   11/14  10/14
DUCK             2300   42     230/ 17/ 25 1003.6
2 E DUCK         2211      45                N/A     7/14   7/14
OREGON INLET     2300   42 45  280/  9/ 11 1004.4
13E OREGON INLT  2300      47                N/A    10/13   8/13
HATTERAS CG      2300   46 52  260/ 22/ 26 1004.4
DIAMOND BUOY     2250   50 74  260/ 23/ 31 1004.2   10/15   8/15
CAPE LOOKOUT     NOT AVBL
BEAUFORT LAB     2300   45 47  280/  5/ 11 1005.3
30 SE NEW RVR IN 2208   48 59              1005.2
30 SE NEW RVR IN 2225      59                N/A    10/ 8   3/11
27 SE WRIGHTSVLE NOT AVBL
5 SE WRIGHTSVLE  2208   46 52  270/ 19/ 25 1006.6
225 S CAPE HAT   2250   59 69  260/ 31/ 41   N/A    17/10  11/10
41 SE CHARLESTON 2250   47 65  270/ 29/ 37 1009.7    9/ 8   2/13

$$



USA.gov is the U.S. government's official web portal to all federal, state and local government web resources and services.